Location: Rounton
(54.4000°N, 1.3500°W)
Time: 02:41:13
(UTC+01:00)

IRIDIUM 33 DEB - Pass Details

Date: 11 July 2022
Orbit: 708 x 709 km, 86.3° (Epoch: 10 August)

Event Time Altitude Azimuth Distance (km) Brightness Sun altitude
Rises 03:15:59 0° 357° (N) 3,120 ? -8.9°
Reaches altitude 10° 03:18:20 10° 1° (N) 2,197 ? -8.7°
Maximum altitude 03:23:10 59° 81° (E) 824 ? -8.4°
Drops below altitude 10° 03:27:57 10° 161° (SSE) 2,182 ? -8.0°
Sets 03:30:16 0° 165° (SSE) 3,097 ? -7.8°
